TimeCST,TemperatureF,Dew PointF,Humidity,Sea Level PressureIn,VisibilityMPH,Wind Direction,Wind SpeedMPH,Gust SpeedMPH,PrecipitationIn,Events,Conditions,WindDirDegrees,DateUTC
12:15 AM,17.4,11.7,78,30.24,10.0,NNW,4.6,-,N/A,,Clear,340,2013-01-02 06:15:00
12:35 AM,17.2,12.0,80,30.23,10.0,NNW,3.5,-,N/A,,Clear,330,2013-01-02 06:35:00
12:55 AM,16.5,11.3,80,30.24,10.0,WNW,3.5,-,N/A,,Clear,300,2013-01-02 06:55:00
1:15 AM,16.7,11.3,79,30.25,10.0,WNW,3.5,-,N/A,,Clear,300,2013-01-02 07:15:00
1:35 AM,16.2,11.1,81,30.25,10.0,NNW,4.6,-,N/A,,Clear,330,2013-01-02 07:35:00
1:55 AM,15.8,10.8,80,30.25,10.0,NNW,3.5,-,N/A,,Clear,330,2013-01-02 07:55:00
2:15 AM,15.6,11.5,84,30.26,10.0,Calm,Calm,-,N/A,,Clear,0,2013-01-02 08:15:00
2:35 AM,14.5,10.4,84,30.26,10.0,Calm,Calm,-,N/A,,Clear,0,2013-01-02 08:35:00
2:55 AM,15.4,11.8,86,30.26,10.0,Calm,Calm,-,N/A,,Clear,0,2013-01-02 08:55:00
3:15 AM,14.7,11.1,86,30.26,10.0,NNW,3.5,-,N/A,,Clear,340,2013-01-02 09:15:00
3:35 AM,14.2,10.4,85,30.25,10.0,North,3.5,-,N/A,,Clear,350,2013-01-02 09:35:00
3:55 AM,14.5,10.4,84,30.25,10.0,NNW,3.5,-,N/A,,Clear,340,2013-01-02 09:55:00
4:15 AM,14.7,10.4,83,30.23,10.0,Calm,Calm,-,N/A,,Clear,0,2013-01-02 10:15:00
4:35 AM,14.5,10.2,83,30.24,10.0,Calm,Calm,-,N/A,,Clear,0,2013-01-02 10:35:00
4:55 AM,12.9,9.3,86,30.25,10.0,Calm,Calm,-,N/A,,Clear,0,2013-01-02 10:55:00
5:15 AM,12.7,9.3,86,30.25,10.0,Calm,Calm,-,N/A,,Unknown,0,2013-01-02 11:15:00
5:35 AM,13.1,10.2,88,30.26,7.0,Calm,Calm,-,N/A,,Clear,0,2013-01-02 11:35:00
5:55 AM,10.4,6.8,85,30.25,7.0,Calm,Calm,-,N/A,,Clear,0,2013-01-02 11:55:00
6:15 AM,10.8,8.2,90,30.27,7.0,SW,4.6,-,N/A,,Clear,220,2013-01-02 12:15:00
6:35 AM,10.0,7.3,89,30.28,7.0,SSW,3.5,-,N/A,,Clear,210,2013-01-02 12:35:00
6:55 AM,9.5,6.8,89,30.28,7.0,SW,3.5,-,N/A,,Unknown,230,2013-01-02 12:55:00
7:15 AM,10.0,7.3,89,30.28,5.0,Calm,Calm,-,N/A,,Clear,0,2013-01-02 13:15:00
7:35 AM,10.4,8.1,90,30.28,5.0,Calm,Calm,-,N/A,,Clear,0,2013-01-02 13:35:00
7:55 AM,10.8,8.2,90,30.28,5.0,Calm,Calm,-,N/A,,Clear,0,2013-01-02 13:55:00
8:15 AM,11.3,8.6,89,30.28,5.0,Calm,Calm,-,N/A,,Clear,0,2013-01-02 14:15:00
8:35 AM,12.6,9.9,89,30.28,5.0,Calm,Calm,-,N/A,,Mist,0,2013-01-02 14:35:00
8:55 AM,12.4,9.7,89,30.29,5.0,Calm,Calm,-,N/A,,Mist,0,2013-01-02 14:55:00
9:15 AM,14.0,10.8,87,30.29,5.0,South,3.5,-,N/A,,Mist,170,2013-01-02 15:15:00
9:35 AM,15.8,11.8,84,30.29,5.0,Calm,Calm,-,N/A,,Mist,0,2013-01-02 15:35:00
9:55 AM,17.1,12.2,81,30.28,7.0,Calm,Calm,-,N/A,,Unknown,0,2013-01-02 15:55:00
10:15 AM,18.3,12.9,79,30.28,7.0,Calm,Calm,-,N/A,,Unknown,0,2013-01-02 16:15:00
10:35 AM,20.3,12.7,73,30.28,10.0,Calm,Calm,-,N/A,,Unknown,0,2013-01-02 16:35:00
10:55 AM,21.2,13.1,71,30.28,10.0,Calm,Calm,-,N/A,,Clear,0,2013-01-02 16:55:00
11:15 AM,22.8,12.7,65,30.27,10.0,Calm,Calm,-,N/A,,Clear,0,2013-01-02 17:15:00
11:35 AM,23.5,11.8,61,30.25,10.0,Calm,Calm,-,N/A,,Clear,0,2013-01-02 17:35:00
11:55 AM,24.1,12.7,62,30.25,10.0,Calm,Calm,-,N/A,,Clear,0,2013-01-02 17:55:00
12:15 PM,24.3,12.4,61,30.24,10.0,South,4.6,-,N/A,,Clear,180,2013-01-02 18:15:00
12:35 PM,24.4,12.2,60,30.23,10.0,Calm,Calm,-,N/A,,Clear,0,2013-01-02 18:35:00
12:55 PM,25.0,13.5,62,30.23,10.0,SSW,3.5,-,N/A,,Clear,200,2013-01-02 18:55:00
1:15 PM,25.5,12.7,58,30.23,10.0,Calm,Calm,-,N/A,,Clear,0,2013-01-02 19:15:00
1:35 PM,25.7,13.8,61,30.22,10.0,Calm,Calm,-,N/A,,Unknown,0,2013-01-02 19:35:00
1:55 PM,26.2,14.0,60,30.21,10.0,Calm,Calm,-,N/A,,Unknown,0,2013-01-02 19:55:00
2:15 PM,26.6,14.4,60,30.22,10.0,Calm,Calm,-,N/A,,Unknown,0,2013-01-02 20:15:00
2:35 PM,27.1,12.7,55,30.22,10.0,South,4.6,-,N/A,,Unknown,180,2013-01-02 20:35:00
2:55 PM,27.3,12.2,53,30.23,10.0,South,3.5,-,N/A,,Unknown,180,2013-01-02 20:55:00
3:15 PM,27.1,13.8,57,30.23,10.0,South,4.6,-,N/A,,Unknown,170,2013-01-02 21:15:00
3:35 PM,27.1,14.4,59,30.23,10.0,Calm,Calm,-,N/A,,Unknown,0,2013-01-02 21:35:00
3:55 PM,26.6,15.3,62,30.23,10.0,Calm,Calm,-,N/A,,Unknown,0,2013-01-02 21:55:00
4:15 PM,26.2,14.7,62,30.24,10.0,WSW,3.5,-,N/A,,Unknown,250,2013-01-02 22:15:00
4:35 PM,25.5,15.3,65,30.23,10.0,Calm,Calm,-,N/A,,Unknown,0,2013-01-02 22:35:00
4:55 PM,24.6,16.9,72,30.23,10.0,Calm,Calm,-,N/A,,Clear,0,2013-01-02 22:55:00
5:15 PM,23.5,15.4,71,30.22,10.0,South,4.6,-,N/A,,Clear,170,2013-01-02 23:15:00
5:35 PM,22.6,14.9,72,30.22,10.0,SSE,3.5,-,N/A,,Clear,160,2013-01-02 23:35:00
5:55 PM,22.6,14.7,72,30.23,10.0,SSE,3.5,-,N/A,,Clear,150,2013-01-02 23:55:00
6:15 PM,22.3,14.5,72,30.22,10.0,SE,3.5,-,N/A,,Clear,140,2013-01-03 00:15:00
6:35 PM,21.2,14.0,74,30.23,10.0,Calm,Calm,-,N/A,,Clear,0,2013-01-03 00:35:00
6:55 PM,22.1,14.9,74,30.23,10.0,Calm,Calm,-,N/A,,Clear,0,2013-01-03 00:55:00
7:15 PM,21.4,14.5,75,30.23,10.0,Calm,Calm,-,N/A,,Clear,0,2013-01-03 01:15:00
7:35 PM,19.2,14.9,83,30.23,10.0,SE,4.6,-,N/A,,Clear,140,2013-01-03 01:35:00
7:55 PM,20.1,12.9,74,30.24,10.0,SSE,3.5,-,N/A,,Clear,160,2013-01-03 01:55:00
8:15 PM,19.9,13.1,75,30.24,10.0,South,6.9,-,N/A,,Clear,170,2013-01-03 02:15:00
8:35 PM,19.4,13.1,76,30.24,10.0,SSE,5.8,-,N/A,,Clear,160,2013-01-03 02:35:00
8:55 PM,19.0,13.1,78,30.23,10.0,SSE,4.6,-,N/A,,Clear,150,2013-01-03 02:55:00
9:15 PM,20.3,13.5,75,30.24,10.0,Calm,Calm,-,N/A,,Clear,0,2013-01-03 03:15:00
9:35 PM,21.2,13.6,73,30.23,10.0,Calm,Calm,-,N/A,,Clear,0,2013-01-03 03:35:00
9:55 PM,20.5,13.1,73,30.24,10.0,SSE,3.5,-,N/A,,Clear,160,2013-01-03 03:55:00
10:15 PM,19.2,13.1,77,30.25,10.0,SSE,3.5,-,N/A,,Clear,160,2013-01-03 04:15:00
10:35 PM,18.0,11.3,75,30.24,10.0,SSE,6.9,-,N/A,,Clear,160,2013-01-03 04:35:00
10:55 PM,20.8,13.1,72,30.24,10.0,SSE,8.1,-,N/A,,Clear,160,2013-01-03 04:55:00
11:15 PM,21.0,13.3,72,30.24,10.0,SSE,8.1,-,N/A,,Clear,160,2013-01-03 05:15:00
11:35 PM,19.8,12.0,72,30.24,10.0,South,3.5,-,N/A,,Clear,180,2013-01-03 05:35:00
11:55 PM,20.3,11.8,70,30.23,10.0,South,3.5,-,N/A,,Clear,170,2013-01-03 05:55:00